Location: Cazavet
(43.0017°N, 1.0431°E)
Time: 22:23:26
(UTC+00:00)

Cosmos 371 Rocket - Pass Details

Date: 18 January 2026
Orbit: 676 x 688 km, 74.0° (Epoch: 13 February)

Event Time Altitude Azimuth Distance (km) Brightness Sun altitude
Rises 06:37:52 0° 202° (SSW) 3,039 6.6 -8.3°
Reaches altitude 10° 06:40:10 10° 203° (SSW) 2,126 5.8 -7.9°
Maximum altitude 06:44:57 79° 290° (WNW) 702 3.2 -7.1°
Drops below altitude 10° 06:49:47 10° 18° (NNE) 2,135 5.8 -6.3°
Sets 06:52:06 0° 20° (NNE) 3,052 6.6 -5.9°
